User: anonymous   Login
Location: Nag� el Ma?a??a
(24.0667°N, 32.8833°E)
Time: 09:18:57
(UTC+00:00)
Language:

Cosmos 1553 Rocket - Orbit

View from above orbital plane
View from above orbital plane
View from above satellite
View from above satellite

Ground track
Ground track

The orbit data is extracted from the following two-line orbital elements,

1 14974U 84046B   21340.84553559 -.00000011  00000-0 -27363-4 0  9990
2 14974  82.9355   6.8874 0046430 108.8701  63.8248 13.76941145886772
Epoch (UTC): 06 December 2021 20:17:34
Eccentricity: 0.0046430
inclination: 82.9355°
perigee height: 940 km
apogee height: 1009 km
right ascension of ascending node: 6.8874°
argument of perigee: 108.8701°
revolutions per day: 13.76941145
mean anomaly at epoch: 63.8248°
orbit number at epoch: 88677

The dashed part of the orbit path shows where the satellite is in the earth's shadow,  

DLR